Location: Black Kettle National Grasslands
(35.7000°N, 99.8000°W)
Time: 17:18:03
(UTC-05:00)

LightSail 2 - Visible Passes

Search period start: 22 September 2019 00:00
Search period end: 02 October 2019 00:00
Orbit: 701 x 730 km, 24.0° (Epoch: 21 September)

Date Brightness Start Highest point End Pass type
(mag) Time Alt. Az. Time Alt. Az. Time Alt. Az.
22 Sep 7.3 05:24:20 13° SSE 05:24:23 13° SSE 05:26:45 10° SE visible
23 Sep 6.9 06:09:42 14° SSW 06:12:10 19° S 06:15:45 10° SE visible
24 Sep 7.2 05:16:01 17° SSE 05:16:01 17° SSE 05:18:23 10° SE visible
24 Sep 6.8 06:56:12 10° SW 07:00:01 21° S 07:03:50 10° SE visible
25 Sep 6.7 06:01:21 18° SSW 06:02:54 21° S 06:06:43 10° SE visible
26 Sep 7.2 05:07:38 17° SSE 05:07:38 17° SSE 05:09:30 10° SE visible
26 Sep 6.8 06:47:04 10° SW 06:50:44 20° S 06:54:23 10° SE visible
27 Sep 6.6 05:52:58 21° SSW 05:53:36 21° S 05:57:24 10° SE visible
28 Sep 7.5 04:59:16 14° SE 04:59:16 14° SE 05:00:18 10° SE visible
28 Sep 7.0 06:38:17 10° SW 06:41:23 17° SSW 06:44:35 10° SSE visible
29 Sep 6.8 05:44:37 19° S 05:44:37 19° S 05:47:47 10° SE visible
30 Sep 7.2 06:29:59 10° SW 06:31:57 13° SSW 06:34:07 10° S visible
01 Oct 7.3 05:36:21 14° S 05:36:21 14° S 05:37:44 10° SSE visible
